Orbital Elements at Epoch 2459000.5 (2020-May-31.0) TDB
Reference: JPL 11 (heliocentric ecliptic J2000)
Element | Value | Uncertainty (1-sigma) | Units |
e | .1564467630522297 | 8.4003e-08 | |
a | 2.865969929753581 | 3.7275e-08 | au |
q | 2.417598211238607 | 2.2332e-07 | au |
i | 4.211619257113932 | 1.2809e-05 | deg |
node | 3.903274083124335 | 8.6763e-05 | deg |
peri | 308.5480481005902 | 0.00010072 | deg |
M | 35.98982423042136 | 5.5729e-05 | deg |
tp | 2458823.332892073371 (2019-Dec-05.83289207) | 0.00027183 | TDB |
period | 1772.172001875869 4.85 | 3.4574e-05 9.466e-08 | d yr |
n | .203140552733558 | 3.9631e-09 | deg/d |
Q | 3.314341648268555 | 4.3107e-08 | au |
|
| | Orbit Determination Parameters
Additional Information
|